Dauntless Aviation
Greetings, Guest! To participate, [sign up for a free account] or [log in]
Airports Europe Czech Republic
LKPO
PRV

Prerov

Prerov, CZECH REPUBLIC

Airport Info
Edit

Location

Latitude / Longitude: 49°25'32"N / 17°24'16"E
  49°25.548'N / 17°24.282'E
  49.4258 / 17.4047

Nearby radio navigation aids

CK PREROV NDB. 63.6° 2.8nm from CK to field.

Runway Information

Runway 06 /24

Dimensions: 8202 x 196 ft.
Surface: ASP
 
Runway 06
Runway 24
Latitude: 49.421419 49.430439
Longitude: 17.389275 17.420478
Elevation: 663 ft. 663 ft.
Runway true heading: 64.6 244.6
 

Instrument Procedures

  Aerodrome Chart

IAPs (Instrument Approach Procedures)

  ILS/DME Rwy 06
  NDB/DME (GPS) or PAR Rwy 06
  NDB (GPS) or PAR Rwy 06
  POLOM 3A

Departure Procedures

  Instrument Departure Chart HLV 1A - 2Z
  Instrument Departure Chart LUTIM 2A - 2Z
  Instrument Departure Chart MORKO 2Z
  Instrument Departure Chart POLOM 3A
Satellite photo at:
Airport distance calculator
From:
Weather Reports

METAR

LKMT
31.3nm NE
LKMT 210330Z 23007KT CAVOK 10/10 Q1012 NOSIG
LKTB
33.3nm SW
LKTB 210330Z VRB02KT 9999 -RA NSC 11/10 Q1013 NOSIG

TAF

LKMT
31.3nm NE
TAF LKMT 201700Z 2018/2124 22012KT 9999 SCT036 BECMG 2118/2121 8000 -RA BKN026 TEMPO 2121/2124 20014G24KT RA
LKTB
33.3nm SW
TAF LKTB 202300Z 2100/2206 26006KT CAVOK TEMPO 2102/2107 7000 -RA BKN030 BECMG 2106/2109 22008KT BECMG 2116/2118 BKN026 BECMG 2118/2120 8000 -RA OVC020 BECMG 2123/2124 31014KT TEMPO 2200/2206 3500 +RA BKN005 OVC015 PROB30 TEMPO 2200/2206 2000 +SHRA FEW012CB OVC012
Safelog

 

Dauntless Aviation

© 2007-2014 Dauntless Aviation, all rights reserved
Information provided via PilotNav comes from a variety of official and unofficial data sources. As errors are possible, do not use PilotNav for primary flight planning purposes. Verify any information that you receive via PilotNav with current and canonical charts and other official documents. The material in this database is subject to database copyrights held by Dauntless Aviation and may not be copied without the express permission of Dauntless Aviation - licenses for use of part of all of this data are available for purchase; enquire via the Dauntless Aviation helpdesk. A number of mechanisms and markers exist in the database to protect against and identify infringement / copyright. Automated queries against this website are stictly prohibited, and all activity is logged and analyzed.